Weather History for Versailles, OH

Change the Weather History Date:

Saturday, January 19, 2013

  Actual Average (KDAY) Record (KDAY)
Temperature  
Mean Temperature 42 °F 27 °F  
Max Temperature 50 °F 35 °F 68 °F (1907)
Min Temperature 33 °F 20 °F -25 °F (1994)
Degree Days  
Heating Degree Days 24 38  
Month to date heating degree days 716  
Since 1 July heating degree days 2875  
Cooling Degree Days 0 0  
Month to date cooling degree days 0  
Year to date cooling degree days 0  
Moisture  
Dew Point 27 °F    
Average Humidity 57    
Maximum Humidity 75    
Minimum Humidity 47    
Precipitation  
Precipitation 0.00 in 0.08 in 1.28 in (1900)
Month to date precipitation 1.75  
Year to date precipitation 1.75  
Snow  
Snow 0.00 in 0.20 in 4.50 in (1956)
Month to date snowfall 4.8  
Since 1 July snowfall 10.3  
Snow Depth -    
Sea Level Pressure  
Sea Level Pressure 29.98 in    
Wind  
Wind Speed 17 mph (SW)    
Max Wind Speed 25 mph    
Max Gust Speed 33 mph    
Visibility 10 miles    
Events      
T = Trace of Precipitation, MM = Missing Value Source: NWS Daily Summary

Daily Weather History Graph

Daily Weather History Graph

Search for Another Location

Airport:

Trip Planner

Search our weather history database for the weather conditions in past years. The results will help you decide how hot, cold, wet, or windy it might be!

Date:

Astronomy

Jan. 19, 2013 Rise Set
Actual Time 7:56 AM EST 5:41 PM EST
Civil Twilight 7:27 AM EST 6:11 PM EST
Nautical Twilight 6:53 AM EST 6:44 PM EST
Astronomical Twilight 6:21 AM EST 7:16 PM EST
Moon 12:07 PM EST (1/19) 1:29 AM EST (1/19)
Length of Visible Light 10h 44m
Length of Day
9h 45m
First Quarter, 57% of the Moon is Illuminated
Jan 19
First Quarter
Jan 26
Full
Feb 3
Last Quarter
Feb 10
New
Feb 17
First Quarter

Hourly Weather History & Observations

Time (EST) Temp. Windchill Dew Point Humidity Pressure Visibility Wind Dir Wind Speed Gust Speed Precip Events Conditions
12:15 AM 33.8 °F 23.9 °F 26.6 °F 75% 30.12 in 10.0 mi SSW 15.0 mph 23.0 mph N/A   Clear
12:35 AM 33.8 °F 23.2 °F 26.6 °F 75% 30.13 in 10.0 mi SSW 17.3 mph 21.9 mph N/A   Clear
12:55 AM 33.8 °F 23.5 °F 26.6 °F 75% 30.12 in 10.0 mi SSW 16.1 mph 26.5 mph N/A   Clear
1:15 AM 35.6 °F 26.2 °F 24.8 °F 65% 30.11 in 10.0 mi SSW 15.0 mph 24.2 mph N/A   Clear
1:35 AM 35.6 °F 26.6 °F 24.8 °F 65% 30.11 in 10.0 mi SSW 13.8 mph 21.9 mph N/A   Clear
1:55 AM 35.6 °F 27.5 °F 24.8 °F 65% 30.11 in 10.0 mi SSW 11.5 mph 19.6 mph N/A   Clear
2:15 AM 35.6 °F 27.5 °F 24.8 °F 65% 30.12 in 10.0 mi SSW 11.5 mph 17.3 mph N/A   Clear
2:35 AM 35.6 °F 26.6 °F 23.0 °F 60% 30.12 in 10.0 mi SSW 13.8 mph 18.4 mph N/A   Clear
2:55 AM 37.4 °F 27.8 °F 23.0 °F 56% 30.12 in 10.0 mi SW 17.3 mph 20.7 mph N/A   Clear
3:15 AM 37.4 °F 27.2 °F 23.0 °F 56% 30.12 in 10.0 mi SW 19.6 mph 25.3 mph N/A   Clear
3:35 AM 37.4 °F 27.5 °F 23.0 °F 56% 30.11 in 10.0 mi SW 18.4 mph 29.9 mph N/A   Clear
3:55 AM 37.4 °F 26.6 °F 23.0 °F 56% 30.11 in 10.0 mi SW 21.9 mph 31.1 mph N/A   Clear
4:15 AM 37.4 °F 26.6 °F 23.0 °F 56% 30.11 in 10.0 mi SW 21.9 mph 27.6 mph N/A   Clear
4:35 AM 37.4 °F 26.6 °F 23.0 °F 56% 30.10 in 10.0 mi SW 21.9 mph 25.3 mph N/A   Clear
4:55 AM 37.4 °F 27.2 °F 23.0 °F 56% 30.09 in 10.0 mi SW 19.6 mph 29.9 mph N/A   Clear
5:15 AM 37.4 °F 27.2 °F 23.0 °F 56% 30.09 in 10.0 mi SW 19.6 mph 27.6 mph N/A   Clear
5:35 AM 35.6 °F 25.2 °F 23.0 °F 60% 30.09 in 10.0 mi SW 18.4 mph 24.2 mph N/A   Clear
5:55 AM 35.6 °F 25.2 °F 23.0 °F 60% 30.09 in 10.0 mi SW 18.4 mph 26.5 mph N/A   Clear
6:15 AM 35.6 °F 24.5 °F 23.0 °F 60% 30.08 in 10.0 mi SW 20.7 mph 27.6 mph N/A   Clear
6:35 AM 35.6 °F 24.2 °F 23.0 °F 60% 30.08 in 10.0 mi SW 21.9 mph 28.8 mph N/A   Clear
7:35 AM 37.4 °F 26.9 °F 23.0 °F 56% 30.08 in 10.0 mi SW 20.7 mph 26.5 mph N/A   Clear
7:55 AM 37.4 °F 27.2 °F 23.0 °F 56% 30.07 in 10.0 mi SW 19.6 mph 27.6 mph N/A   Clear
8:15 AM 37.4 °F 27.5 °F 23.0 °F 56% 30.07 in 10.0 mi SW 18.4 mph 25.3 mph N/A   Clear
8:55 AM 37.4 °F 27.5 °F 23.0 °F 56% 30.07 in 10.0 mi SW 18.4 mph 25.3 mph N/A   Clear
9:15 AM 37.4 °F 26.6 °F 23.0 °F 56% 30.07 in 10.0 mi SW 21.9 mph 28.8 mph N/A   Clear
9:35 AM 39.2 °F 29.0 °F 24.8 °F 56% 30.08 in 10.0 mi SW 21.9 mph 28.8 mph N/A   Clear
10:35 AM 42.8 °F 34.5 °F 26.6 °F 53% 30.07 in 10.0 mi SW 18.4 mph 27.6 mph N/A   Clear
10:55 AM 42.8 °F 34.3 °F 26.6 °F 53% 30.07 in 10.0 mi SW 19.6 mph 27.6 mph N/A   Clear
11:15 AM 42.8 °F 34.0 °F 26.6 °F 53% 30.06 in 10.0 mi SW 20.7 mph 28.8 mph N/A   Clear
11:35 AM 44.6 °F 36.1 °F 26.6 °F 49% 30.04 in 10.0 mi SW 21.9 mph 32.2 mph N/A   Clear
12:15 PM 44.6 °F 35.5 °F 28.4 °F 53% 30.01 in 10.0 mi SW 25.3 mph 31.1 mph N/A   Clear
12:35 PM 46.4 °F 38.7 °F 28.4 °F 50% 29.99 in 10.0 mi SW 20.7 mph 31.1 mph N/A   Clear
12:55 PM 46.4 °F 38.5 °F 28.4 °F 50% 29.98 in 10.0 mi SW 21.9 mph 29.9 mph N/A   Clear
1:15 PM 46.4 °F 37.9 °F 28.4 °F 50% 29.97 in 10.0 mi SW 25.3 mph 33.4 mph N/A   Clear
1:35 PM 48.2 °F - 30.2 °F 50% 29.95 in 10.0 mi SW 17.3 mph 28.8 mph N/A   Clear
1:55 PM 50.0 °F - 30.2 °F 47% 29.93 in 10.0 mi SSW 20.7 mph 28.8 mph N/A   Clear
2:15 PM 50.0 °F - 30.2 °F 47% 29.92 in 10.0 mi SW 18.4 mph 26.5 mph N/A   Clear
2:35 PM 50.0 °F - 32.0 °F 50% 29.91 in 10.0 mi SW 18.4 mph 26.5 mph N/A   Clear
2:55 PM 50.0 °F - 32.0 °F 50% 29.90 in 10.0 mi SSW 15.0 mph 20.7 mph N/A   Clear
3:15 PM 50.0 °F - 30.2 °F 47% 29.89 in 10.0 mi SSW 19.6 mph 26.5 mph N/A   Clear
3:55 PM 50.0 °F - 30.2 °F 47% 29.87 in 10.0 mi SSW 18.4 mph 28.8 mph N/A   Clear
4:15 PM 50.0 °F - 30.2 °F 47% 29.86 in 10.0 mi SSW 19.6 mph 27.6 mph N/A   Clear
4:35 PM 50.0 °F - 30.2 °F 47% 29.86 in 10.0 mi SSW 16.1 mph 20.7 mph N/A   Clear
4:55 PM 48.2 °F - 30.2 °F 50% 29.85 in 10.0 mi SSW 16.1 mph 21.9 mph N/A   Clear
5:15 PM 46.4 °F 39.8 °F 30.2 °F 53% 29.85 in 10.0 mi SSW 16.1 mph 23.0 mph N/A   Clear
5:35 PM 46.4 °F 40.1 °F 30.2 °F 53% 29.86 in 10.0 mi SW 15.0 mph 19.6 mph N/A   Clear
5:55 PM 44.6 °F 37.8 °F 30.2 °F 57% 29.87 in 10.0 mi SW 15.0 mph 19.6 mph N/A   Clear
6:15 PM 44.6 °F 39.7 °F 30.2 °F 57% 29.86 in 10.0 mi SSW 9.2 mph - N/A   Clear
6:35 PM 42.8 °F 38.0 °F 30.2 °F 61% 29.87 in 10.0 mi SW 8.1 mph - N/A   Clear
6:55 PM 42.8 °F 38.0 °F 30.2 °F 61% 29.86 in 10.0 mi SSW 8.1 mph - N/A   Clear
7:15 PM 41.0 °F 35.8 °F 30.2 °F 65% 29.86 in 10.0 mi SSW 8.1 mph - N/A   Clear
7:35 PM 42.8 °F 37.0 °F 28.4 °F 57% 29.85 in 10.0 mi SSW 10.4 mph 16.1 mph N/A   Clear
7:55 PM 44.6 °F 37.2 °F 28.4 °F 53% 29.85 in 10.0 mi SW 17.3 mph 21.9 mph N/A   Clear
8:15 PM 44.6 °F 37.2 °F 30.2 °F 57% 29.86 in 10.0 mi SW 17.3 mph 23.0 mph N/A   Clear
8:35 PM 44.6 °F 37.4 °F 30.2 °F 57% 29.85 in 10.0 mi SW 16.1 mph 26.5 mph N/A   Clear
8:55 PM 44.6 °F 37.2 °F 30.2 °F 57% 29.85 in 10.0 mi SW 17.3 mph 26.5 mph N/A   Clear
9:15 PM 44.6 °F 37.2 °F 30.2 °F 57% 29.85 in 10.0 mi SW 17.3 mph 23.0 mph N/A   Clear
9:35 PM 44.6 °F 37.4 °F 30.2 °F 57% 29.85 in 10.0 mi SW 16.1 mph 25.3 mph N/A   Clear
9:55 PM 44.6 °F 37.2 °F 32.0 °F 61% 29.85 in 10.0 mi WSW 17.3 mph 25.3 mph N/A   Clear
10:15 PM 42.8 °F 34.5 °F 32.0 °F 66% 29.84 in 10.0 mi WSW 18.4 mph 25.3 mph N/A   Clear
10:35 PM 42.8 °F 34.8 °F 32.0 °F 66% 29.84 in 10.0 mi WSW 17.3 mph 27.6 mph N/A   Clear
10:55 PM 42.8 °F 34.0 °F 32.0 °F 66% 29.84 in 10.0 mi WSW 20.7 mph 27.6 mph N/A   Clear
11:15 PM 42.8 °F 34.3 °F 32.0 °F 66% 29.84 in 10.0 mi WSW 19.6 mph 26.5 mph N/A   Clear
11:35 PM 42.8 °F 34.5 °F 32.0 °F 66% 29.84 in 10.0 mi WSW 18.4 mph 27.6 mph N/A   Clear
11:55 PM 42.8 °F 34.5 °F 32.0 °F 66% 29.84 in 10.0 mi WSW 18.4 mph 23.0 mph N/A   Clear